Location: Newark
(25.6108°S, 54.5803°W)
Time: 07:14:20
(UTC+00:00)

Tiros 1 - Pass Details

Date: 05 November 2020
Orbit: 630 x 664 km, 48.4° (Epoch: 29 November)

Event Time Altitude Azimuth Distance (km) Brightness Sun altitude
Rises 14:25:47 0° 313° (NW) 2,933 10.5 73.7°
Reaches altitude 10° 14:28:05 10° 312° (NW) 2,035 9.8 74.1°
Maximum altitude 14:32:47 81° 226° (SW) 663 8.8 75.0°
Drops below altitude 10° 14:37:36 10° 137° (SE) 2,076 9.9 75.8°
Sets 14:39:58 0° 135° (SE) 2,998 10.6 76.2°
